#timestamp,LO_Frequency,Hit,StdDev 
1513314015.3,286047011.4,P
1513314035.1,286047014.9,P
1513314055.9,286047018.5,Y
1513314075.7,286047018.7,P
1513314095.5,286047018.9,P
1513314115.4,286047026.8,P
1513314135.2,286047028.8,Y
1513314155.0,286047012.3,P
1513314155.9,286047012.3,P
1513314175.8,286047013.2,P
1513314195.6,286047013.9,Y
1513314215.4,286047000.9,P
1513314235.3,286047000.1,N
1513314255.1,286047002.8,N
1513314256.0,286047002.8,N
1513314275.8,286047005.9,N
1513314295.7,286047002.9,N
1513314315.5,286047005.9,N
1513314335.3,286047004.3,N
1513314355.1,286047006.8,N
1513314375.9,286047009.0,N
1513314395.7,286047006.5,N
1513314415.5,286047009.3,N
1513314435.4,286047013.5,Y
1513314455.2,286047005.9,P
1513314475.0,286047004.7,P
1513314475.9,286047004.7,P
1513314495.8,286047006.4,Y
1513314515.6,286047000.7,P
1513314535.4,286046999.7,N
1513314555.3,286046999.9,N
1513314575.1,286046999.6,N
1513314595.8,286046997.1,N
1513314615.7,286046998.9,N
1513314635.5,286047000.3,N
1513314655.3,286046994.9,N
1513314675.2,286046992.1,Y
1513314695.9,286046994.6,P
1513314715.7,286046992.7,N
1513314735.6,286046992.7,N
1513314755.4,286046989.7,Y
1513314775.2,286046993.0,P
1513314795.1,286046994.2,P
1513314796.0,286046994.2,P
1513314815.8,286046994.4,Y
1513314835.6,286046995.1,P
1513314855.5,286046991.7,P
1513314875.3,286046993.9,P
1513314895.1,286046989.4,Y
1513314915.9,286046994.7,P
1513314935.7,286046990.5,P
1513314955.5,286046989.7,P
1513314975.4,286046985.6,Y
1513314995.2,286046990.5,P
1513315015.0,286046991.4,P
1513315015.9,286046991.4,P
1513315035.8,286046989.1,Y
1513315055.6,286046996.3,P
1513315075.4,286046993.9,N
1513315095.3,286046990.6,P
1513315115.1,286046990.1,Y
1513315135.8,286046995.5,P
1513315155.7,286046997.5,N
1513315175.5,286046994.8,N
1513315195.3,286046989.1,Y
1513315215.2,286046991.9,P
1513315235.0,286046994.8,P
1513315235.9,286046994.8,P
1513315255.8,286046991.8,Y
1513315275.6,286046995.9,P
1513315295.4,286046993.3,P
1513315315.2,286046996.4,P
1513315335.1,286046996.6,N
1513315336.0,286046996.6,N
1513315355.8,286046999.4,N
1513315375.6,286046996.6,N
1513315395.5,286046997.3,N
1513315415.3,286046993.7,Y
1513315435.1,286046997.1,P
1513315455.9,286046999.1,N
1513315475.7,286046998.6,N
1513315495.5,286047003.8,Y
1513315515.4,286047006.9,P
1513315535.2,286047007.0,N
1513315555.0,286047007.1,N
1513315555.9,286047007.1,N
1513315575.8,286047002.9,N
1513315595.6,286047004.7,N
1513315615.4,286047009.6,N
1513315635.3,286047010.5,Y
1513315655.1,286046999.9,P
1513315675.8,286047004.1,N
1513315695.7,286047005.4,N
1513315715.5,286047005.5,N
1513315735.3,286047007.2,Y
1513315755.2,286047000.3,P
1513315775.9,286046999.4,N
1513315795.7,286046998.5,N
1513315815.6,286047000.3,N
1513315835.4,286047000.4,N
1513315855.2,286046997.1,N
1513315875.0,286046995.5,N
1513315876.0,286046995.5,N
1513315895.8,286046996.4,N
1513315915.6,286046992.7,N
1513315935.4,286046993.7,N
1513315955.3,286046997.8,N
1513315975.1,286046995.3,N
1513315995.8,286046996.0,N
1513316015.7,286046990.1,Y
1513316035.5,286046996.3,P
1513316055.3,286046995.3,P
1513316075.2,286046999.6,N
1513316095.9,286046998.9,N
1513316115.7,286047003.9,N
1513316135.6,286046996.9,N
1513316155.4,286046992.1,N
1513316175.2,286046994.8,N
1513316195.1,286046994.2,N
1513316196.0,286046994.2,N
1513316215.8,286046992.2,N
1513316235.6,286046992.8,N
1513316255.5,286046987.1,Y
1513316275.3,286046990.6,P
1513316295.1,286046989.2,P
1513316315.9,286046986.6,P
1513316335.7,286046987.5,Y
1513316355.5,286046998.1,P
1513316375.4,286046995.6,N
1513316395.2,286047002.8,N
1513316415.0,286046997.5,N
1513316415.9,286046997.5,N
1513316435.8,286046992.5,N
1513316455.6,286046993.9,N
1513316475.4,286046994.8,N
1513316495.2,286046993.2,N
1513316515.1,286046989.1,Y
1513316516.0,286046989.1,P
1513316535.8,286046992.9,N
1513316555.6,286046987.3,P
1513316575.5,286046985.1,Y
1513316595.3,286046993.0,P
1513316615.2,286046994.7,P
1513316635.9,286046993.1,P
1513316655.7,286046993.1,Y
1513316675.6,286046993.4,P
1513316695.4,286046990.6,P
1513316715.2,286046987.6,P
1513316735.1,286046985.6,Y
1513316736.0,286046985.6,P
1513316755.8,286046995.4,N
1513316775.6,286046995.8,N
1513316795.5,286046993.4,N
1513316815.3,286046992.7,N
1513316835.1,286046992.6,N
1513316855.8,286046994.0,N
1513316875.7,286046993.5,N
1513316895.5,286046992.0,N
1513316915.3,286046988.8,Y
1513316935.2,286046995.9,P
1513316955.0,286046994.7,P
1513316955.9,286046994.7,P
1513316975.8,286046993.9,Y
1513316995.6,286047002.3,P
1513317015.4,286047002.1,N
1513317035.2,286047005.6,N
1513317055.1,286047005.4,N
1513317056.0,286047005.4,N
1513317075.8,286047006.4,N
1513317095.6,286047007.3,N
1513317115.5,286047004.1,N
1513317135.3,286047000.5,N
1513317155.1,286046998.8,N
1513317175.9,286046996.9,N
1513317195.7,286046997.1,N
1513317215.5,286046997.1,N
1513317235.4,286047003.0,N
1513317255.2,286047003.2,N
1513317275.0,286047003.4,N
1513317275.9,286047003.4,N
1513317295.7,286047001.5,N
1513317315.6,286047002.7,N
1513317335.4,286046998.4,N
1513317355.2,286047007.4,N
1513317375.1,286047004.5,N
1513317376.0,286047004.5,N
1513317395.8,286047009.1,N
1513317415.6,286047007.8,N
1513317435.5,286047011.1,N
1513317455.3,286047014.3,Y
1513317475.1,286047011.4,P
1513317495.9,286047015.3,P
1513317515.7,286047016.4,P
1513317535.5,286047013.0,N
1513317555.4,286047016.1,Y
1513317575.2,286047010.7,P
1513317595.0,286047006.6,P
1513317595.9,286047006.6,N
